User: anonymous
Location: Trondheim
(63.4170°N, 10.4170°E)
Time: 16:31:47
(UTC+02:00)
Language:

Iridium 82 - Orbit

View from above orbital plane
View from above orbital plane
View from above satellite
View from above satellite

Ground track
Ground track

The orbit data is extracted from the following two-line orbital elements,

1 25467U 98051A   14108.45822892  .00000332  00000-0  11166-3 0  8705
2 25467 086.3956 145.1733 0002684 105.0662 255.0831 14.34214762820960
Epoch (UTC): 18 April 2014 10:59:50
Eccentricity: 0.0002684
inclination: 86.3956°
perigee height: 776 km
apogee height: 779 km
right ascension of ascending node: 145.1733°
argument of perigee: 105.0662°
revolutions per day: 14.34214762
mean anomaly at epoch: 255.0831°
orbit number at epoch: 82096

The dashed part of the orbit path shows where the satellite is in the earth's shadow,  

DLR